[Date Prev][Date Next][Thread Prev][Thread Next] - [Date Index][Thread Index][Author Index]

2 Line ISS Keps 4-28



ISS
1 25544U 98067A   02118.20746528  .00038929  00000-0  50853-3 0  3647
2 25544  51.6360 304.1212 0007301  12.9034 331.3365 15.58237682196227


----
Via the sarex mailing list at AMSAT.ORG courtesy of AMSAT-NA.
To unsubscribe, send "unsubscribe sarex" to Majordomo@amsat.org



AMSAT Top AMSAT Home